カタログに戻る

COSMOS 931 DEB

LostHEO
NORAD 14000·DEBRIS·🇷🇺 Russia

打ち上げ Jul 20, 1977 から Plesetsk Cosmodrome

Loading…

次のパス (今後24時間)

TLE

古いSource: Space-Track

元期: Feb 18, 2024, 13:40 UTC

1 14000U 77068G   24049.56952014 -.00000022  00000-0  00000+0 0  9998
2 14000  71.5759 153.2097 5155585 352.8162  23.9570  2.00325698317786

AllMySatでCOSMOS 931 DEBをリアルタイム追跡

Download on the App Store